Location: Shenandoah County Park
(38.9356°N, 78.4524°W)
Time: 04:50:39
(UTC-04:00)

Explorer 11/Cluster Stage 4 - Pass Details

Date: 25 February 2024
Orbit: 465 x 1220 km, 28.8° (Epoch: 12 April)

Event Time Altitude Azimuth Distance (km) Brightness Sun altitude
Rises 01:14:00 0° 234° (SW) 4,127 - -58.5°
Reaches altitude 10° 01:17:18 10° 224° (SW) 3,155 - -58.3°
Maximum altitude 01:24:02 31° 167° (SSE) 1,927 - -57.7°
Drops below altitude 10° 01:30:15 10° 109° (ESE) 2,899 - -57.1°
Sets 01:33:09 0° 99° (E) 3,747 - -56.8°
